WetterOnline ( https://www.wetteronline.de )

Wetter aktuell Ulm

Aktuelles Wetter: Ulm-Mähringen (592m)

6-stündlich | Neueste Meldungen
Ortszeit Temperatur Wetter
So, 05.02. 7:00 -3.8° C leicht bewölkt
So, 05.02. 1:00 -2.0° C fast wolkenlos
Sa, 04.02. 19:00 1.9° C bedeckt
Sa, 04.02. 13:00 4.1° C bedeckt
Sa, 04.02. 7:00 3.5° C bewölkt
Sa, 04.02. 1:00 5.2° C leichter Regen
Fr, 03.02. 19:00 4.1° C Sprühregen
Fr, 03.02. 13:00 5.0° C Sprühregen
Ortszeit Temperatur Wetter
So, 05.02. 11:30 -0.2° C bedeckt
So, 05.02. 11:20 -0.2° C bedeckt
So, 05.02. 11:10 -0.2° C bedeckt
So, 05.02. 11:00 -0.5° C bedeckt
So, 05.02. 10:50 -0.5° C bedeckt
So, 05.02. 10:40 -0.5° C bedeckt
So, 05.02. 10:30 -0.9° C bedeckt
So, 05.02. 10:00 -1.2° C bedeckt
So, 05.02. 9:30 -1.4° C bedeckt
So, 05.02. 9:00 -1.3° C bedeckt
So, 05.02. 8:30 -3.1° C wolkig
Ortszeit Relative Feuchte Sichtweite
So, 05.02. 7:00 96% 22 km
So, 05.02. 1:00 93% 30 km
Sa, 04.02. 19:00 85% 45 km
Sa, 04.02. 13:00 75% 35 km
Sa, 04.02. 7:00 86% 35 km
Sa, 04.02. 1:00 89% 9 km
Fr, 03.02. 19:00 89% 6 km
Fr, 03.02. 13:00 79% 60 km
Ortszeit Relative Feuchte Sichtweite
So, 05.02. 11:30 90% 25 km
So, 05.02. 11:20 90% -
So, 05.02. 11:10 90% -
So, 05.02. 11:00 90% 21 km
So, 05.02. 10:50 90% -
So, 05.02. 10:40 90% -
So, 05.02. 10:30 90% 20 km
So, 05.02. 10:00 92% 20 km
So, 05.02. 9:30 92% 20 km
So, 05.02. 9:00 92% 16 km
So, 05.02. 8:30 93% 20 km
Ortszeit Niederschlagsmenge Niederschlagsart
So, 05.02. 7:00 0.0 l/m2 in 12 Std. -
So, 05.02. 1:00 0.0 l/m2 in 6 Std. -
Sa, 04.02. 19:00 0.0 l/m2 in 12 Std. -
Sa, 04.02. 13:00 0.0 l/m2 in 6 Std. -
Sa, 04.02. 7:00 0.6 l/m2 in 12 Std. Regen
Sa, 04.02. 1:00 0.3 l/m2 in 6 Std. Regen
Fr, 03.02. 19:00 0.3 l/m2 in 12 Std. Regen
Fr, 03.02. 13:00 0.3 l/m2 in 6 Std. Regen
Ortszeit Niederschlagsmenge Niederschlagsart
So, 05.02. 11:30 0.0 l/m2 in 30 Min -
So, 05.02. 11:20 keine Meldung -
So, 05.02. 11:10 keine Meldung -
So, 05.02. 11:00 0.0 l/m2 in 1 Std. -
So, 05.02. 10:50 keine Meldung -
So, 05.02. 10:40 keine Meldung -
So, 05.02. 10:30 0.0 l/m2 in 30 Min -
So, 05.02. 10:00 0.0 l/m2 in 1 Std. -
So, 05.02. 9:30 0.0 l/m2 in 30 Min -
So, 05.02. 9:00 0.0 l/m2 in 1 Std. -
So, 05.02. 8:30 0.0 l/m2 in 30 Min -
Ortszeit Stärke Spitze Richtung
km/h Bft. km/h Grad Sektor
So, 05.02. 7:00 0 0 4 - -
So, 05.02. 1:00 4 1 14 290° W
Sa, 04.02. 19:00 4 1 25 10° N
Sa, 04.02. 13:00 17 3 24 350° N
Sa, 04.02. 7:00 11 2 54 360° N
Sa, 04.02. 1:00 18 3 50 280° W
Fr, 03.02. 19:00 26 4 54 250° W
Fr, 03.02. 13:00 22 4 43 240° SW
Ortszeit Stärke Spitze Richtung
km/h Bft. km/h Grad Sektor
So, 05.02. 11:30 9 2 13 230° SW
So, 05.02. 11:20 9 2 - 230° SW
So, 05.02. 11:10 9 2 - 230° SW
So, 05.02. 11:00 7 2 11 230° SW
So, 05.02. 10:50 7 2 - 230° SW
So, 05.02. 10:40 6 1 - 230° SW
So, 05.02. 10:30 7 2 11 220° SW
So, 05.02. 10:00 6 1 13 200° S
So, 05.02. 9:30 9 2 11 170° S
So, 05.02. 9:00 2 1 6 180° S
So, 05.02. 8:30 0 0 7 - -
Ortszeit Untergrenze Bedeckung Gattung
total tief tief mittel hoch
So, 05.02. 7:00 1200 m 4/8 4/8 - - -
So, 05.02. 1:00 3600 m 1/8 1/8 - - -
Sa, 04.02. 19:00 810 m 8/8 8/8 - - -
Sa, 04.02. 13:00 4500 m 8/8 8/8 - - -
Sa, 04.02. 7:00 510 m 8/8 7/8 - - -
Sa, 04.02. 1:00 450 m 7/8 7/8 - - -
Fr, 03.02. 19:00 480 m 7/8 7/8 - - -
Fr, 03.02. 13:00 600 m 7/8 7/8 - - -
Ortszeit Bedeckungsgrad in Achtel und Wolkenuntergrenze
So, 05.02. 11:30 1(630m) 5(810m) 8(1080m)
So, 05.02. 11:20 1(630m) 5(810m) 8(1080m)
So, 05.02. 11:10 8
So, 05.02. 11:00 3(1020m) 7(1260m) 8(1500m)
So, 05.02. 10:50 3(1020m) 7(1260m) 8(1500m)
So, 05.02. 10:40 8
So, 05.02. 10:30 6(1020m) 8(1500m)
So, 05.02. 10:00 5(1470m) 8(1500m) 8(1800m)
So, 05.02. 9:30 6(1440m) 8(2100m) 8(2700m)
So, 05.02. 9:00 8(2100m) 8(2700m)
So, 05.02. 8:30 2(900m) 7(7200m) 7(7800m)
Ortszeit Luftdruck NN (hPa) Tendenz (hPa in 3 Std.)
So, 05.02. 7:00 1039 - 0,4
So, 05.02. 1:00 1040 + 0,1
Sa, 04.02. 19:00 1038 + 1,1
Sa, 04.02. 13:00 1036 + 0,4
Sa, 04.02. 7:00 1033 + 1,5
Sa, 04.02. 1:00 1030 + 0,2
Fr, 03.02. 19:00 1029 + 0,4
Fr, 03.02. 13:00 1030 - 0,6
Ortszeit Luftdruck NN (hPa) Tendenz (hPa in 3 Std.)
So, 05.02. 11:30 1037 - 1,2
So, 05.02. 11:20 1037 keine Meldung
So, 05.02. 11:10 1037 keine Meldung
So, 05.02. 11:00 1037 - 1,0
So, 05.02. 10:50 1037 keine Meldung
So, 05.02. 10:40 1037 keine Meldung
So, 05.02. 10:30 1038 - 0,6
So, 05.02. 10:00 1038 - 0,2
So, 05.02. 9:30 1038 - 0,2
So, 05.02. 9:00 1039 + 0,3
So, 05.02. 8:30 1039 0,0
Ortszeit Schneehöhe (cm)
So, 05.02. 7:00 0
So, 05.02. 1:00 0
Sa, 04.02. 19:00 0
Sa, 04.02. 13:00 0
Sa, 04.02. 7:00 0
Sa, 04.02. 1:00 0
Fr, 03.02. 19:00 0
Fr, 03.02. 13:00 0
Ortszeit Schneehöhe (cm)
So, 05.02. 11:30 0
So, 05.02. 11:20 0
So, 05.02. 11:10 0
So, 05.02. 11:00 0
So, 05.02. 10:50 0
So, 05.02. 10:40 0
So, 05.02. 10:30 0
So, 05.02. 10:00 0
So, 05.02. 9:30 0
So, 05.02. 9:00 0
So, 05.02. 8:30 0
Link zu dieser Seite / Seite empfehlen

Das Wetter in ...